Time,TemperatureF,DewpointF,PressureIn,WindDirection,WindDirectionDegrees,WindSpeedMPH,WindSpeedGustMPH,Humidity,HourlyPrecipIn,Conditions,Clouds,dailyrainin,SoftwareType,DateUTC
2013-09-22 00:00:00,53.1,26.8,30.08,SW,220,0.0,0.0,36,0.00,,---,0.00,VWS V14.01,2013-09-22 06:00:00,
2013-09-22 00:06:00,52.9,26.7,30.08,SW,220,0.0,0.0,36,0.00,,---,0.00,VWS V14.01,2013-09-22 06:06:00,
2013-09-22 00:11:00,52.9,26.7,30.08,SW,220,0.0,0.0,36,0.00,,---,0.00,VWS V14.01,2013-09-22 06:11:00,
2013-09-22 00:17:00,52.7,26.5,30.08,ESE,114,0.0,0.0,36,0.00,,---,0.00,VWS V14.01,2013-09-22 06:17:00,
2013-09-22 00:23:00,52.5,27.0,30.08,ESE,111,0.0,0.0,37,0.00,,---,0.00,VWS V14.01,2013-09-22 06:23:00,
2013-09-22 00:29:00,52.5,27.0,30.08,ESE,111,0.0,0.0,37,0.00,,---,0.00,VWS V14.01,2013-09-22 06:29:00,
2013-09-22 00:34:00,52.3,26.9,30.08,ESE,111,0.0,0.0,37,0.00,,---,0.00,VWS V14.01,2013-09-22 06:34:00,
2013-09-22 00:39:00,52.3,26.9,30.08,ESE,111,0.0,0.0,37,0.00,,---,0.00,VWS V14.01,2013-09-22 06:39:00,
2013-09-22 00:44:00,52.2,26.7,30.08,ENE,75,0.0,0.0,37,0.00,,---,0.00,VWS V14.01,2013-09-22 06:44:00,
2013-09-22 00:50:00,52.0,26.5,30.08,ENE,62,0.0,0.0,37,0.00,,---,0.00,VWS V14.01,2013-09-22 06:50:00,
2013-09-22 00:55:00,52.0,26.5,30.08,ENE,65,0.0,0.0,37,0.00,,---,0.00,VWS V14.01,2013-09-22 06:55:00,
2013-09-22 01:00:00,51.8,26.4,30.08,NE,51,0.0,0.0,37,0.00,,---,0.00,VWS V14.01,2013-09-22 07:00:00,
2013-09-22 01:06:00,51.8,26.4,30.08,ENE,70,0.0,0.0,37,0.00,,---,0.00,VWS V14.01,2013-09-22 07:06:00,
2013-09-22 01:12:00,51.8,26.4,30.08,East,87,0.0,0.0,37,0.00,,---,0.00,VWS V14.01,2013-09-22 07:12:00,
2013-09-22 01:18:00,51.6,26.9,30.08,East,82,0.0,0.0,38,0.00,,---,0.00,VWS V14.01,2013-09-22 07:18:00,
2013-09-22 01:23:00,51.6,26.9,30.08,East,82,0.0,0.0,38,0.00,,---,0.00,VWS V14.01,2013-09-22 07:23:00,
2013-09-22 01:28:00,51.6,26.9,30.08,East,81,0.0,0.0,38,0.00,,---,0.00,VWS V14.01,2013-09-22 07:28:00,
2013-09-22 01:34:00,51.6,26.9,30.08,ENE,74,0.0,0.0,38,0.00,,---,0.00,VWS V14.01,2013-09-22 07:34:00,
2013-09-22 01:39:00,51.6,26.9,30.08,ENE,62,0.0,0.0,38,0.00,,---,0.00,VWS V14.01,2013-09-22 07:39:00,
2013-09-22 01:44:00,51.4,26.7,30.08,ENE,62,0.0,0.0,38,0.00,,---,0.00,VWS V14.01,2013-09-22 07:44:00,
2013-09-22 01:49:00,51.4,27.3,30.08,WNW,288,3.6,3.6,39,0.00,,---,0.00,VWS V14.01,2013-09-22 07:49:00,
2013-09-22 01:55:00,51.4,27.3,30.05,WSW,237,0.0,0.0,39,0.00,,---,0.00,VWS V14.01,2013-09-22 07:55:00,
2013-09-22 02:01:00,51.6,28.1,30.05,SW,229,5.4,8.3,40,0.00,,---,0.00,VWS V14.01,2013-09-22 08:01:00,
2013-09-22 02:06:00,51.8,27.6,30.05,WSW,240,5.4,8.3,39,0.00,,---,0.00,VWS V14.01,2013-09-22 08:06:00,
2013-09-22 02:13:00,52.0,27.8,30.05,WNW,298,0.0,5.8,39,0.00,,---,0.00,VWS V14.01,2013-09-22 08:13:00,
2013-09-22 02:19:00,52.0,27.8,30.05,NW,321,0.0,0.0,39,0.00,,---,0.00,VWS V14.01,2013-09-22 08:19:00,
2013-09-22 02:24:00,52.0,27.8,30.08,ESE,117,0.0,0.0,39,0.00,,---,0.00,VWS V14.01,2013-09-22 08:24:00,
2013-09-22 02:29:00,51.8,27.6,30.08,ESE,111,0.0,0.0,39,0.00,,---,0.00,VWS V14.01,2013-09-22 08:29:00,
2013-09-22 02:35:00,51.8,27.6,30.08,ESE,119,0.0,0.0,39,0.00,,---,0.00,VWS V14.01,2013-09-22 08:35:00,
2013-09-22 02:40:00,51.8,27.6,30.05,WSW,256,0.0,0.0,39,0.00,,---,0.00,VWS V14.01,2013-09-22 08:40:00,
2013-09-22 02:45:00,51.8,27.6,30.05,East,97,0.0,0.0,39,0.00,,---,0.00,VWS V14.01,2013-09-22 08:45:00,
2013-09-22 02:51:00,51.6,27.5,30.05,ENE,60,0.0,0.0,39,0.00,,---,0.00,VWS V14.01,2013-09-22 08:51:00,
2013-09-22 02:57:00,51.6,27.5,30.05,ENE,60,0.0,0.0,39,0.00,,---,0.00,VWS V14.01,2013-09-22 08:57:00,
2013-09-22 03:02:00,51.6,27.5,30.05,ENE,60,0.0,0.0,39,0.00,,---,0.00,VWS V14.01,2013-09-22 09:02:00,
2013-09-22 03:08:00,51.4,27.9,30.05,ENE,60,0.0,0.0,40,0.00,,---,0.00,VWS V14.01,2013-09-22 09:08:00,
2013-09-22 03:13:00,51.4,27.9,30.05,ENE,60,0.0,0.0,40,0.00,,---,0.00,VWS V14.01,2013-09-22 09:13:00,
2013-09-22 03:19:00,51.4,27.9,30.05,East,93,0.0,0.0,40,0.00,,---,0.00,VWS V14.01,2013-09-22 09:19:00,
2013-09-22 03:25:00,51.3,27.8,30.05,East,89,0.0,0.0,40,0.00,,---,0.00,VWS V14.01,2013-09-22 09:25:00,
2013-09-22 03:31:00,51.1,28.2,30.05,NE,50,0.0,0.0,41,0.00,,---,0.00,VWS V14.01,2013-09-22 09:31:00,
2013-09-22 03:36:00,51.1,27.6,30.05,East,90,0.0,0.0,40,0.00,,---,0.00,VWS V14.01,2013-09-22 09:36:00,
2013-09-22 03:41:00,51.1,28.2,30.05,East,81,0.0,0.0,41,0.00,,---,0.00,VWS V14.01,2013-09-22 09:41:00,
2013-09-22 03:47:00,51.1,28.2,30.05,ENE,65,0.0,0.0,41,0.00,,---,0.00,VWS V14.01,2013-09-22 09:47:00,
2013-09-22 03:52:00,51.1,28.2,30.05,SW,228,0.0,0.0,41,0.00,,---,0.00,VWS V14.01,2013-09-22 09:52:00,
2013-09-22 03:57:00,51.1,28.2,30.05,SW,228,0.0,0.0,41,0.00,,---,0.00,VWS V14.01,2013-09-22 09:57:00,
2013-09-22 04:02:00,50.9,28.6,30.05,SW,228,0.0,0.0,42,0.00,,---,0.00,VWS V14.01,2013-09-22 10:02:00,
2013-09-22 04:08:00,50.9,28.6,30.05,SW,228,0.0,0.0,42,0.00,,---,0.00,VWS V14.01,2013-09-22 10:08:00,
2013-09-22 04:14:00,50.9,28.6,30.05,SW,228,0.0,0.0,42,0.00,,---,0.00,VWS V14.01,2013-09-22 10:14:00,
2013-09-22 04:19:00,50.9,28.1,30.05,SW,228,0.0,0.0,41,0.00,,---,0.00,VWS V14.01,2013-09-22 10:19:00,
2013-09-22 04:25:00,50.9,28.6,30.05,SW,228,0.0,0.0,42,0.00,,---,0.00,VWS V14.01,2013-09-22 10:25:00,
2013-09-22 04:30:00,50.9,28.6,30.05,SW,228,0.0,0.0,42,0.00,,---,0.00,VWS V14.01,2013-09-22 10:30:00,
2013-09-22 04:36:00,50.9,28.6,30.05,SW,225,0.0,0.0,42,0.00,,---,0.00,VWS V14.01,2013-09-22 10:36:00,
2013-09-22 04:42:00,50.7,28.5,30.05,SW,225,0.0,0.0,42,0.00,,---,0.00,VWS V14.01,2013-09-22 10:42:00,
2013-09-22 04:48:00,50.7,29.1,30.05,East,96,0.0,0.0,43,0.00,,---,0.00,VWS V14.01,2013-09-22 10:48:00,
2013-09-22 04:53:00,50.5,29.5,30.02,ENE,57,0.0,0.0,44,0.00,,---,0.00,VWS V14.01,2013-09-22 10:53:00,
2013-09-22 04:58:00,50.5,29.5,30.02,ENE,57,0.0,0.0,44,0.00,,---,0.00,VWS V14.01,2013-09-22 10:58:00,
2013-09-22 05:03:00,50.5,29.5,30.02,ENE,57,0.0,0.0,44,0.00,,---,0.00,VWS V14.01,2013-09-22 11:03:00,
2013-09-22 05:09:00,50.5,28.9,30.02,ENE,57,0.0,0.0,43,0.00,,---,0.00,VWS V14.01,2013-09-22 11:09:00,
2013-09-22 05:14:00,50.5,28.9,30.02,ENE,57,0.0,0.0,43,0.00,,---,0.00,VWS V14.01,2013-09-22 11:14:00,
2013-09-22 05:19:00,50.4,28.7,30.02,ENE,57,0.0,0.0,43,0.00,,---,0.00,VWS V14.01,2013-09-22 11:19:00,
2013-09-22 05:25:00,50.4,29.3,30.02,ENE,63,0.0,0.0,44,0.00,,---,0.00,VWS V14.01,2013-09-22 11:25:00,
2013-09-22 05:31:00,50.2,29.1,30.02,ENE,59,0.0,0.0,44,0.00,,---,0.00,VWS V14.01,2013-09-22 11:31:00,
2013-09-22 05:37:00,50.2,29.1,30.02,ENE,59,0.0,0.0,44,0.00,,---,0.00,VWS V14.01,2013-09-22 11:37:00,
2013-09-22 05:42:00,50.0,29.0,30.02,ENE,59,0.0,0.0,44,0.00,,---,0.00,VWS V14.01,2013-09-22 11:42:00,
2013-09-22 05:47:00,50.0,29.5,30.02,NE,55,0.0,0.0,45,0.00,,---,0.00,VWS V14.01,2013-09-22 11:47:00,
2013-09-22 05:53:00,49.8,30.4,30.02,NE,55,0.0,0.0,47,0.00,,---,0.00,VWS V14.01,2013-09-22 11:53:00,
2013-09-22 05:59:00,49.8,30.4,30.02,NE,55,0.0,0.0,47,0.00,,---,0.00,VWS V14.01,2013-09-22 11:59:00,
2013-09-22 06:05:00,49.6,30.2,30.02,NE,55,0.0,0.0,47,0.00,,---,0.00,VWS V14.01,2013-09-22 12:05:00,
2013-09-22 06:10:00,49.6,30.2,30.02,NE,56,0.0,0.0,47,0.00,,---,0.00,VWS V14.01,2013-09-22 12:10:00,
2013-09-22 06:15:00,49.6,30.2,30.02,North,3,0.0,0.0,47,0.00,,---,0.00,VWS V14.01,2013-09-22 12:15:00,
2013-09-22 06:21:00,49.5,30.6,30.02,East,87,0.0,0.0,48,0.00,,---,0.00,VWS V14.01,2013-09-22 12:21:00,
2013-09-22 06:27:00,49.5,31.1,30.02,ENE,60,0.0,3.1,49,0.00,,---,0.00,VWS V14.01,2013-09-22 12:27:00,
2013-09-22 06:32:00,49.5,31.6,30.02,NW,305,0.0,0.0,50,0.00,,---,0.00,VWS V14.01,2013-09-22 12:32:00,
2013-09-22 06:38:00,49.3,31.0,30.05,ENE,59,3.6,5.4,49,0.00,,---,0.00,VWS V14.01,2013-09-22 12:38:00,
2013-09-22 06:43:00,49.3,31.9,30.05,East,82,0.0,2.7,51,0.00,,---,0.00,VWS V14.01,2013-09-22 12:43:00,
2013-09-22 06:48:00,49.1,31.8,30.05,SSE,156,0.0,2.7,51,0.00,,---,0.00,VWS V14.01,2013-09-22 12:48:00,
2013-09-22 06:53:00,49.1,32.2,30.05,SE,142,0.0,0.0,52,0.00,,---,0.00,VWS V14.01,2013-09-22 12:53:00,
2013-09-22 06:59:00,49.1,32.2,30.05,ENE,71,0.0,0.0,52,0.00,,---,0.00,VWS V14.01,2013-09-22 12:59:00,
2013-09-22 07:04:00,48.9,33.5,30.05,ESE,103,0.0,0.0,55,0.00,,---,0.00,VWS V14.01,2013-09-22 13:04:00,
2013-09-22 07:10:00,48.7,33.3,30.05,SSE,157,0.0,0.0,55,0.00,,---,0.00,VWS V14.01,2013-09-22 13:10:00,
2013-09-22 07:16:00,48.7,33.8,30.05,SSE,162,0.0,0.0,56,0.00,,---,0.00,VWS V14.01,2013-09-22 13:16:00,
2013-09-22 07:21:00,48.7,33.8,30.05,SSE,162,0.0,0.0,56,0.00,,---,0.00,VWS V14.01,2013-09-22 13:21:00,
2013-09-22 07:27:00,48.7,33.8,30.05,SSE,162,0.0,0.0,56,0.00,,---,0.00,VWS V14.01,2013-09-22 13:27:00,
2013-09-22 07:32:00,48.7,33.8,30.05,SSE,159,0.0,0.0,56,0.00,,---,0.00,VWS V14.01,2013-09-22 13:32:00,
2013-09-22 07:38:00,48.7,33.8,30.05,ESE,109,0.0,0.0,56,0.00,,---,0.00,VWS V14.01,2013-09-22 13:38:00,
2013-09-22 07:44:00,48.7,34.2,30.05,ESE,109,0.0,0.0,57,0.00,,---,0.00,VWS V14.01,2013-09-22 13:44:00,
2013-09-22 07:50:00,48.7,34.2,30.05,ESE,109,0.0,0.0,57,0.00,,---,0.00,VWS V14.01,2013-09-22 13:50:00,
2013-09-22 07:55:00,48.7,34.2,30.05,ESE,109,0.0,0.0,57,0.00,,---,0.00,VWS V14.01,2013-09-22 13:55:00,
2013-09-22 08:00:00,48.7,34.6,30.05,ESE,108,0.0,0.0,58,0.00,,---,0.00,VWS V14.01,2013-09-22 14:00:00,
2013-09-22 08:06:00,48.7,34.6,30.05,ESE,108,0.0,0.0,58,0.00,,---,0.00,VWS V14.01,2013-09-22 14:06:00,
2013-09-22 08:13:00,48.7,34.6,30.05,ESE,107,0.0,0.0,58,0.00,,---,0.00,VWS V14.01,2013-09-22 14:13:00,
2013-09-22 08:18:00,48.6,34.5,30.05,East,90,0.0,0.0,58,0.00,,---,0.00,VWS V14.01,2013-09-22 14:18:00,
2013-09-22 08:23:00,48.4,34.3,30.05,East,90,0.0,0.0,58,0.00,,---,0.00,VWS V14.01,2013-09-22 14:23:00,
2013-09-22 08:28:00,48.0,34.4,30.05,East,86,0.0,0.0,59,0.00,,---,0.00,VWS V14.01,2013-09-22 14:28:00,
2013-09-22 08:34:00,47.8,34.2,30.05,ENE,72,0.0,0.0,59,0.00,,---,0.00,VWS V14.01,2013-09-22 14:34:00,
2013-09-22 08:40:00,47.7,34.9,30.05,ENE,70,0.0,0.0,61,0.00,,---,0.00,VWS V14.01,2013-09-22 14:40:00,
2013-09-22 08:45:00,47.8,35.1,30.05,East,101,0.0,0.0,61,0.00,,---,0.00,VWS V14.01,2013-09-22 14:45:00,
2013-09-22 08:51:00,47.7,34.9,30.05,SE,142,0.0,0.0,61,0.00,,---,0.00,VWS V14.01,2013-09-22 14:51:00,
2013-09-22 08:56:00,47.7,35.3,30.05,SE,142,0.0,0.0,62,0.00,,---,0.00,VWS V14.01,2013-09-22 14:56:00,
2013-09-22 09:01:00,47.7,35.3,30.05,ESE,110,0.0,0.0,62,0.00,,---,0.00,VWS V14.01,2013-09-22 15:01:00,
2013-09-22 09:06:00,47.7,35.3,30.05,ESE,108,0.0,0.0,62,0.00,,---,0.00,VWS V14.01,2013-09-22 15:06:00,
2013-09-22 09:12:00,47.8,37.4,30.05,SE,143,0.0,0.0,67,0.00,,---,0.00,VWS V14.01,2013-09-22 15:12:00,
2013-09-22 09:17:00,48.0,37.6,30.05,SE,144,0.0,0.0,67,0.00,,---,0.00,VWS V14.01,2013-09-22 15:17:00,
2013-09-22 09:22:00,48.0,38.3,30.05,SW,229,0.0,0.0,69,0.00,,---,0.00,VWS V14.01,2013-09-22 15:22:00,
2013-09-22 09:28:00,48.0,38.3,30.05,WSW,258,0.0,0.0,69,0.00,,---,0.00,VWS V14.01,2013-09-22 15:28:00,
2013-09-22 09:33:00,48.0,38.3,30.05,WSW,258,0.0,0.0,69,0.00,,---,0.00,VWS V14.01,2013-09-22 15:33:00,
2013-09-22 09:38:00,48.2,38.2,30.05,WSW,258,0.0,0.0,68,0.00,,---,0.00,VWS V14.01,2013-09-22 15:38:00,
2013-09-22 09:44:00,48.2,38.2,30.05,WSW,258,0.0,0.0,68,0.00,,---,0.00,VWS V14.01,2013-09-22 15:44:00,
2013-09-22 09:50:00,48.2,38.9,30.05,WSW,258,0.0,0.0,70,0.00,,---,0.00,VWS V14.01,2013-09-22 15:50:00,
2013-09-22 09:55:00,48.0,39.1,30.05,West,267,0.0,0.0,71,0.00,,---,0.00,VWS V14.01,2013-09-22 15:55:00,
2013-09-22 10:01:00,48.2,39.2,30.05,West,274,0.0,0.0,71,0.00,,---,0.00,VWS V14.01,2013-09-22 16:01:00,
2013-09-22 10:07:00,48.2,39.2,30.05,WNW,289,0.0,0.0,71,0.00,,---,0.00,VWS V14.01,2013-09-22 16:07:00,
2013-09-22 10:13:00,48.2,38.9,30.02,WNW,289,0.0,0.0,70,0.00,,---,0.00,VWS V14.01,2013-09-22 16:13:00,
2013-09-22 10:18:00,48.4,39.1,30.02,WNW,289,0.0,0.0,70,0.00,,---,0.00,VWS V14.01,2013-09-22 16:18:00,
2013-09-22 10:23:00,48.4,39.1,30.02,WNW,289,0.0,0.0,70,0.00,,---,0.00,VWS V14.01,2013-09-22 16:23:00,
2013-09-22 10:29:00,48.4,39.1,30.02,NW,306,0.0,0.0,70,0.00,,---,0.00,VWS V14.01,2013-09-22 16:29:00,
2013-09-22 10:34:00,48.6,39.2,30.02,NE,47,0.0,0.0,70,0.00,,---,0.00,VWS V14.01,2013-09-22 16:34:00,
2013-09-22 10:39:00,48.7,39.4,29.99,NE,53,0.0,0.0,70,0.00,,---,0.00,VWS V14.01,2013-09-22 16:39:00,
2013-09-22 10:44:00,49.1,40.1,29.99,East,86,0.0,0.0,71,0.00,,---,0.00,VWS V14.01,2013-09-22 16:44:00,
2013-09-22 10:50:00,49.3,39.9,29.99,East,86,0.0,0.0,70,0.00,,---,0.00,VWS V14.01,2013-09-22 16:50:00,
2013-09-22 10:55:00,49.6,40.3,29.99,South,174,0.0,0.0,70,0.00,,---,0.00,VWS V14.01,2013-09-22 16:55:00,
2013-09-22 11:01:00,49.8,40.4,29.99,ESE,107,0.0,0.0,70,0.00,,---,0.00,VWS V14.01,2013-09-22 17:01:00,
2013-09-22 11:06:00,50.4,41.0,29.99,NW,318,4.9,4.9,70,0.00,,---,0.00,VWS V14.01,2013-09-22 17:06:00,
2013-09-22 11:12:00,50.9,42.2,29.99,NNE,33,0.0,0.0,72,0.00,,---,0.00,VWS V14.01,2013-09-22 17:12:00,
2013-09-22 11:17:00,51.3,42.9,29.99,NW,310,0.0,2.2,73,0.00,,---,0.00,VWS V14.01,2013-09-22 17:17:00,
2013-09-22 11:23:00,51.4,42.7,29.96,ENE,65,0.0,0.0,72,0.00,,---,0.00,VWS V14.01,2013-09-22 17:23:00,
2013-09-22 11:29:00,51.6,42.2,29.96,ENE,65,0.0,0.0,70,0.00,,---,0.00,VWS V14.01,2013-09-22 17:29:00,
2013-09-22 11:34:00,51.6,41.8,29.96,North,9,0.0,0.0,69,0.00,,---,0.00,VWS V14.01,2013-09-22 17:34:00,
2013-09-22 11:40:00,51.8,42.0,29.96,NNE,28,0.0,0.0,69,0.00,,---,0.00,VWS V14.01,2013-09-22 17:40:00,
2013-09-22 11:46:00,52.2,42.7,29.96,North,357,0.0,0.0,70,0.00,,---,0.00,VWS V14.01,2013-09-22 17:46:00,
2013-09-22 11:51:00,52.5,42.7,29.96,East,94,0.0,0.0,69,0.00,,---,0.00,VWS V14.01,2013-09-22 17:51:00,
2013-09-22 11:57:00,52.9,42.6,29.96,North,0,0.0,0.0,68,0.00,,---,0.00,VWS V14.01,2013-09-22 17:57:00,
2013-09-22 12:02:00,53.1,40.8,29.96,West,274,0.0,0.0,63,0.00,,---,0.00,VWS V14.01,2013-09-22 18:02:00,
2013-09-22 12:08:00,53.2,39.3,29.96,WNW,289,4.0,4.0,59,0.00,,---,0.00,VWS V14.01,2013-09-22 18:08:00,
2013-09-22 12:14:00,53.4,39.5,29.96,West,265,4.0,5.4,59,0.00,,---,0.00,VWS V14.01,2013-09-22 18:14:00,
2013-09-22 12:19:00,54.1,33.8,29.96,SSW,213,10.5,10.5,46,0.00,,---,0.00,VWS V14.01,2013-09-22 18:19:00,
2013-09-22 12:25:00,54.3,31.7,29.93,SW,220,10.1,16.3,42,0.00,,---,0.00,VWS V14.01,2013-09-22 18:25:00,
2013-09-22 12:30:00,54.1,31.0,29.93,SSE,157,13.6,16.3,41,0.00,,---,0.00,VWS V14.01,2013-09-22 18:30:00,
2013-09-22 12:36:00,54.1,29.1,29.93,SSW,195,13.2,18.8,38,0.00,,---,0.00,VWS V14.01,2013-09-22 18:36:00,
2013-09-22 12:42:00,54.1,28.5,29.93,SSW,198,11.0,16.3,37,0.00,,---,0.00,VWS V14.01,2013-09-22 18:42:00,
2013-09-22 12:47:00,53.8,28.1,29.93,SSW,198,8.3,16.3,37,0.00,,---,0.00,VWS V14.01,2013-09-22 18:47:00,
2013-09-22 12:52:00,53.4,27.8,29.96,SSW,204,8.3,18.3,37,0.00,,---,0.00,VWS V14.01,2013-09-22 18:52:00,
2013-09-22 12:57:00,53.2,28.3,29.96,SSE,168,5.8,16.8,38,0.00,,---,0.00,VWS V14.01,2013-09-22 18:57:00,
2013-09-22 13:03:00,52.9,28.6,29.96,South,172,5.8,14.1,39,0.00,,---,0.00,VWS V14.01,2013-09-22 19:03:00,
2013-09-22 13:08:00,51.8,29.5,29.99,SSW,198,3.6,11.0,42,0.00,,---,0.00,VWS V14.01,2013-09-22 19:08:00,
2013-09-22 13:14:00,50.7,31.2,29.99,SE,146,5.4,9.6,47,0.00,,---,0.00,VWS V14.01,2013-09-22 19:14:00,
2013-09-22 13:19:00,49.6,32.3,29.99,SSW,196,3.1,5.4,51,0.00,,---,0.00,VWS V14.01,2013-09-22 19:19:00,
2013-09-22 13:25:00,48.7,31.9,29.99,SSE,148,3.6,5.8,52,0.00,,---,0.00,VWS V14.01,2013-09-22 19:25:00,
2013-09-22 13:30:00,48.0,33.1,29.99,SE,135,2.7,6.3,56,0.00,,---,0.00,VWS V14.01,2013-09-22 19:30:00,
2013-09-22 13:36:00,47.5,33.9,29.99,East,93,2.7,3.6,59,0.00,,---,0.00,VWS V14.01,2013-09-22 19:36:00,
2013-09-22 13:41:00,47.1,34.4,29.99,East,86,0.0,0.0,61,0.00,,---,0.00,VWS V14.01,2013-09-22 19:41:00,
2013-09-22 13:46:00,47.1,35.2,29.99,South,190,0.0,0.0,63,0.00,,---,0.00,VWS V14.01,2013-09-22 19:46:00,
2013-09-22 13:52:00,47.3,35.8,29.99,ESE,117,0.0,0.0,64,0.00,,---,0.00,VWS V14.01,2013-09-22 19:52:00,
2013-09-22 13:57:00,47.3,37.3,29.96,South,179,2.7,2.7,68,0.00,,---,0.00,VWS V14.01,2013-09-22 19:57:00,
2013-09-22 14:03:00,47.5,37.8,29.96,SW,218,2.7,4.9,69,0.00,,---,0.00,VWS V14.01,2013-09-22 20:03:00,
2013-09-22 14:08:00,47.5,37.8,29.96,WSW,237,0.0,0.0,69,0.00,,---,0.00,VWS V14.01,2013-09-22 20:08:00,
2013-09-22 14:14:00,47.5,38.9,29.96,WSW,243,6.3,6.3,72,0.00,,---,0.00,VWS V14.01,2013-09-22 20:14:00,
2013-09-22 14:20:00,47.3,39.1,29.96,SW,220,4.0,4.0,73,0.00,,---,0.00,VWS V14.01,2013-09-22 20:20:00,
2013-09-22 14:25:00,47.1,38.6,29.96,WSW,253,2.7,4.0,72,0.00,,---,0.00,VWS V14.01,2013-09-22 20:25:00,
2013-09-22 14:31:00,47.1,39.3,29.96,WSW,239,3.1,4.9,74,0.00,,---,0.00,VWS V14.01,2013-09-22 20:31:00,
2013-09-22 14:36:00,46.9,39.1,29.96,SSW,193,0.0,4.0,74,0.00,,---,0.00,VWS V14.01,2013-09-22 20:36:00,
2013-09-22 14:41:00,46.9,39.1,29.93,SW,222,0.0,0.0,74,0.00,,---,0.00,VWS V14.01,2013-09-22 20:41:00,
2013-09-22 14:46:00,46.9,39.1,29.93,SW,222,0.0,0.0,74,0.00,,---,0.00,VWS V14.01,2013-09-22 20:46:00,
2013-09-22 14:52:00,46.9,39.1,29.93,SW,227,0.0,0.0,74,0.00,,---,0.00,VWS V14.01,2013-09-22 20:52:00,
2013-09-22 14:57:00,46.6,38.0,29.93,SW,227,0.0,0.0,72,0.00,,---,0.00,VWS V14.01,2013-09-22 20:57:00,
2013-09-22 15:03:00,46.4,37.9,29.93,SW,227,0.0,0.0,72,0.00,,---,0.00,VWS V14.01,2013-09-22 21:03:00,
2013-09-22 15:09:00,46.2,37.7,29.93,WNW,298,0.0,0.0,72,0.00,,---,0.00,VWS V14.01,2013-09-22 21:09:00,
2013-09-22 15:14:00,46.2,37.7,29.93,WNW,298,0.0,0.0,72,0.00,,---,0.00,VWS V14.01,2013-09-22 21:14:00,
2013-09-22 15:21:00,46.0,37.5,29.93,WNW,298,0.0,0.0,72,0.00,,---,0.00,VWS V14.01,2013-09-22 21:21:00,
2013-09-22 15:27:00,46.0,37.5,29.93,SSW,195,2.7,5.8,72,0.00,,---,0.00,VWS V14.01,2013-09-22 21:27:00,
2013-09-22 15:32:00,46.0,37.9,29.93,SSW,209,5.4,5.4,73,0.00,,---,0.00,VWS V14.01,2013-09-22 21:32:00,
2013-09-22 15:38:00,46.0,37.9,29.93,South,182,0.0,0.0,73,0.00,,---,0.00,VWS V14.01,2013-09-22 21:38:00,
2013-09-22 15:44:00,46.0,37.5,29.93,SW,226,3.1,4.0,72,0.00,,---,0.00,VWS V14.01,2013-09-22 21:44:00,
2013-09-22 15:48:00,45.9,37.4,29.93,South,178,3.1,5.8,72,0.00,,---,0.00,VWS V14.01,2013-09-22 21:48:00,
2013-09-22 15:55:00,45.9,38.0,29.96,SW,217,5.4,6.3,74,0.00,,---,0.00,VWS V14.01,2013-09-22 21:55:00,
2013-09-22 16:00:00,45.5,37.7,29.96,ESE,123,0.0,3.1,74,0.00,,---,0.00,VWS V14.01,2013-09-22 22:00:00,
2013-09-22 16:06:00,45.3,37.5,29.96,West,278,2.7,4.0,74,0.00,,---,0.00,VWS V14.01,2013-09-22 22:06:00,
2013-09-22 16:12:00,45.3,37.9,29.93,WNW,287,0.0,4.0,75,0.00,,---,0.00,VWS V14.01,2013-09-22 22:12:00,
2013-09-22 16:17:00,45.3,38.5,29.93,WSW,240,0.0,0.0,77,0.00,,---,0.00,VWS V14.01,2013-09-22 22:17:00,
2013-09-22 16:23:00,45.5,38.7,29.93,WSW,240,0.0,0.0,77,0.00,,---,0.00,VWS V14.01,2013-09-22 22:23:00,
2013-09-22 16:28:00,45.5,38.7,29.90,WSW,240,0.0,0.0,77,0.00,,---,0.00,VWS V14.01,2013-09-22 22:28:00,
2013-09-22 16:33:00,45.5,38.7,29.90,WSW,240,0.0,0.0,77,0.00,,---,0.00,VWS V14.01,2013-09-22 22:33:00,
2013-09-22 16:40:00,45.5,38.7,29.90,South,177,0.0,2.2,77,0.00,,---,0.00,VWS V14.01,2013-09-22 22:40:00,
2013-09-22 16:45:00,45.1,38.0,29.90,NW,305,4.0,8.1,76,0.00,,---,0.00,VWS V14.01,2013-09-22 22:45:00,
2013-09-22 16:51:00,44.8,37.3,29.90,West,261,3.6,6.3,75,0.00,,---,0.00,VWS V14.01,2013-09-22 22:51:00,
2013-09-22 16:56:00,44.6,37.5,29.90,SSE,157,3.6,3.6,76,0.00,,---,0.00,VWS V14.01,2013-09-22 22:56:00,
2013-09-22 17:02:00,44.4,37.3,29.90,NW,320,0.0,6.3,76,0.00,,---,0.00,VWS V14.01,2013-09-22 23:02:00,
2013-09-22 17:07:00,44.2,37.2,29.90,SSE,151,2.7,5.8,76,0.00,,---,0.00,VWS V14.01,2013-09-22 23:07:00,
2013-09-22 17:13:00,44.1,37.0,29.90,SSE,151,0.0,0.0,76,0.00,,---,0.00,VWS V14.01,2013-09-22 23:13:00,
2013-09-22 17:18:00,43.9,37.2,29.90,SSE,151,0.0,0.0,77,0.00,,---,0.00,VWS V14.01,2013-09-22 23:18:00,
2013-09-22 17:23:00,43.9,37.2,29.87,SSE,150,0.0,0.0,77,0.00,,---,0.00,VWS V14.01,2013-09-22 23:23:00,
2013-09-22 17:29:00,43.7,37.0,29.87,SSE,150,0.0,0.0,77,0.00,,---,0.00,VWS V14.01,2013-09-22 23:29:00,
2013-09-22 17:34:00,43.7,37.3,29.87,SSE,150,0.0,0.0,78,0.00,,---,0.00,VWS V14.01,2013-09-22 23:34:00,
2013-09-22 17:39:00,43.9,37.5,29.90,SSE,150,0.0,0.0,78,0.00,,---,0.00,VWS V14.01,2013-09-22 23:39:00,
2013-09-22 17:44:00,43.9,37.8,29.90,SW,217,0.0,0.0,79,0.00,,---,0.00,VWS V14.01,2013-09-22 23:44:00,
2013-09-22 17:50:00,43.7,37.6,29.90,WNW,293,4.0,5.4,79,0.00,,---,0.00,VWS V14.01,2013-09-22 23:50:00,
2013-09-22 17:55:00,43.2,36.5,29.90,WSW,257,3.6,11.9,77,0.00,,---,0.00,VWS V14.01,2013-09-22 23:55:00,
2013-09-22 18:02:00,42.6,36.2,29.90,WSW,238,3.6,4.9,78,0.00,,---,0.00,VWS V14.01,2013-09-23 00:02:00,
2013-09-22 18:07:00,42.4,36.4,29.90,WSW,238,0.0,0.0,79,0.00,,---,0.00,VWS V14.01,2013-09-23 00:07:00,
2013-09-22 18:13:00,42.1,36.4,29.90,SW,228,2.7,5.4,80,0.00,,---,0.00,VWS V14.01,2013-09-23 00:13:00,
2013-09-22 18:19:00,41.5,35.8,29.90,SSW,202,10.5,10.5,80,0.00,,---,0.00,VWS V14.01,2013-09-23 00:19:00,
2013-09-22 18:24:00,40.6,34.7,29.93,East,93,3.1,7.2,79,0.00,,---,0.00,VWS V14.01,2013-09-23 00:24:00,
2013-09-22 18:30:00,39.9,34.0,29.93,ESE,115,2.7,4.0,79,0.00,,---,0.00,VWS V14.01,2013-09-23 00:30:00,
2013-09-22 18:36:00,39.7,34.1,29.93,ENE,59,0.0,0.0,80,0.00,,---,0.00,VWS V14.01,2013-09-23 00:36:00,
2013-09-22 18:42:00,39.9,34.9,29.93,North,0,0.0,0.0,82,0.00,,---,0.00,VWS V14.01,2013-09-23 00:42:00,
2013-09-22 18:48:00,39.7,34.7,29.93,North,0,0.0,0.0,82,0.00,,---,0.00,VWS V14.01,2013-09-23 00:48:00,
2013-09-22 18:54:00,39.6,34.5,29.93,North,0,0.0,0.0,82,0.00,,---,0.00,VWS V14.01,2013-09-23 00:54:00,
2013-09-22 18:59:00,39.4,34.3,29.93,SSE,154,0.0,0.0,82,0.00,,---,0.00,VWS V14.01,2013-09-23 00:59:00,
2013-09-22 19:05:00,39.4,34.7,29.93,SSW,195,2.2,6.3,83,0.00,,---,0.00,VWS V14.01,2013-09-23 01:05:00,
2013-09-22 19:11:00,39.2,34.8,29.93,SE,130,4.9,8.7,84,0.00,,---,0.00,VWS V14.01,2013-09-23 01:11:00,
2013-09-22 19:16:00,39.0,34.6,29.93,SW,225,3.1,5.8,84,0.00,,---,0.00,VWS V14.01,2013-09-23 01:16:00,
2013-09-22 19:21:00,39.0,34.9,29.93,West,278,7.6,10.5,85,0.00,,---,0.00,VWS V14.01,2013-09-23 01:21:00,
2013-09-22 19:26:00,38.7,34.2,29.93,East,88,3.1,4.9,84,0.00,,---,0.00,VWS V14.01,2013-09-23 01:26:00,
2013-09-22 19:32:00,38.5,34.4,29.93,West,267,5.4,5.4,85,0.00,,---,0.00,VWS V14.01,2013-09-23 01:32:00,
2013-09-22 19:37:00,38.7,34.5,29.93,WSW,238,0.0,0.0,85,0.00,,---,0.00,VWS V14.01,2013-09-23 01:37:00,
2013-09-22 19:43:00,38.7,34.8,29.90,WSW,238,0.0,0.0,86,0.00,,---,0.00,VWS V14.01,2013-09-23 01:43:00,
2013-09-22 19:48:00,38.7,34.8,29.90,WSW,238,0.0,0.0,86,0.00,,---,0.00,VWS V14.01,2013-09-23 01:48:00,
2013-09-22 19:54:00,38.7,34.8,29.90,WSW,242,0.0,0.0,86,0.00,,---,0.00,VWS V14.01,2013-09-23 01:54:00,
2013-09-22 19:59:00,38.5,34.7,29.90,West,261,3.6,5.4,86,0.00,,---,0.00,VWS V14.01,2013-09-23 01:59:00,
2013-09-22 20:05:00,38.5,34.7,29.90,SSW,202,0.0,0.0,86,0.00,,---,0.00,VWS V14.01,2013-09-23 02:05:00,
2013-09-22 20:11:00,38.5,34.7,29.90,SSW,207,5.8,6.3,86,0.00,,---,0.00,VWS V14.01,2013-09-23 02:11:00,
2013-09-22 20:16:00,38.3,34.5,29.90,West,260,4.9,8.1,86,0.00,,---,0.00,VWS V14.01,2013-09-23 02:16:00,
2013-09-22 20:22:00,38.1,34.3,29.90,SSW,203,3.1,5.8,86,0.00,,---,0.00,VWS V14.01,2013-09-23 02:22:00,
2013-09-22 20:27:00,38.1,34.6,29.93,SSE,168,2.7,8.1,87,0.00,,---,0.00,VWS V14.01,2013-09-23 02:27:00,
2013-09-22 20:32:00,38.1,34.6,29.93,South,172,0.0,0.0,87,0.00,,---,0.00,VWS V14.01,2013-09-23 02:32:00,
2013-09-22 20:37:00,38.1,34.6,29.93,ESE,110,0.0,0.0,87,0.00,,---,0.00,VWS V14.01,2013-09-23 02:37:00,
2013-09-22 20:43:00,38.3,34.8,29.93,SSE,168,0.0,0.0,87,0.00,,---,0.00,VWS V14.01,2013-09-23 02:43:00,
2013-09-22 20:48:00,38.3,34.8,29.93,SSE,150,0.0,3.1,87,0.00,,---,0.00,VWS V14.01,2013-09-23 02:48:00,
2013-09-22 20:54:00,38.3,34.8,29.90,SSW,199,0.0,0.0,87,0.00,,---,0.00,VWS V14.01,2013-09-23 02:54:00,
2013-09-22 21:00:00,38.3,34.8,29.90,South,191,0.0,0.0,87,0.00,,---,0.00,VWS V14.01,2013-09-23 03:00:00,
2013-09-22 21:05:00,38.1,34.6,29.90,South,172,0.0,0.0,87,0.00,,---,0.00,VWS V14.01,2013-09-23 03:05:00,
2013-09-22 21:11:00,38.1,34.6,29.93,South,182,3.6,5.4,87,0.00,,---,0.00,VWS V14.01,2013-09-23 03:11:00,
2013-09-22 21:16:00,38.1,34.6,29.93,SW,218,4.0,6.3,87,0.00,,---,0.00,VWS V14.01,2013-09-23 03:16:00,
2013-09-22 21:22:00,38.1,34.9,29.93,SW,236,3.6,6.3,88,0.00,,---,0.00,VWS V14.01,2013-09-23 03:22:00,
2013-09-22 21:27:00,38.1,34.9,29.90,SW,233,4.5,6.3,88,0.00,,---,0.00,VWS V14.01,2013-09-23 03:27:00,
2013-09-22 21:33:00,37.9,34.7,29.90,WSW,239,4.0,5.4,88,0.00,,---,0.00,VWS V14.01,2013-09-23 03:33:00,
2013-09-22 21:39:00,37.8,34.5,29.90,WSW,249,4.0,8.1,88,0.00,,---,0.00,VWS V14.01,2013-09-23 03:39:00,
2013-09-22 21:44:00,37.6,34.1,29.90,West,269,4.0,4.0,87,0.00,,---,0.00,VWS V14.01,2013-09-23 03:44:00,
2013-09-22 21:50:00,37.6,34.1,29.90,WSW,258,0.0,0.0,87,0.00,,---,0.00,VWS V14.01,2013-09-23 03:50:00,
2013-09-22 21:56:00,37.4,33.9,29.90,WSW,245,0.0,0.0,87,0.00,,---,0.00,VWS V14.01,2013-09-23 03:56:00,
2013-09-22 22:01:00,37.4,34.2,29.90,WSW,245,0.0,0.0,88,0.00,,---,0.00,VWS V14.01,2013-09-23 04:01:00,
2013-09-22 22:02:00,37.4,34.2,29.90,WSW,245,0.0,0.0,88,0.00,,---,0.00,VWS V14.01,2013-09-23 04:02:00,
2013-09-22 22:03:00,37.4,34.2,29.90,WSW,245,0.0,0.0,88,0.00,,---,0.00,VWS V14.01,2013-09-23 04:03:00,
2013-09-22 22:05:00,37.4,34.2,29.90,WSW,245,0.0,0.0,88,0.00,,---,0.00,VWS V14.01,2013-09-23 04:05:00,
2013-09-22 22:09:00,37.4,34.2,29.90,WSW,245,0.0,0.0,88,0.00,,---,0.00,VWS V14.01,2013-09-23 04:09:00,
2013-09-22 22:15:00,37.4,34.2,29.90,WSW,245,0.0,0.0,88,0.00,,---,0.00,VWS V14.01,2013-09-23 04:15:00,
2013-09-22 22:21:00,37.4,34.2,29.90,WSW,245,0.0,0.0,88,0.00,,---,0.00,VWS V14.01,2013-09-23 04:21:00,
2013-09-22 22:26:00,37.2,34.0,29.90,WSW,245,0.0,0.0,88,0.00,,---,0.00,VWS V14.01,2013-09-23 04:26:00,
2013-09-22 22:31:00,37.2,34.0,29.90,WSW,245,0.0,0.0,88,0.00,,---,0.00,VWS V14.01,2013-09-23 04:31:00,
2013-09-22 22:36:00,37.0,33.8,29.90,WSW,245,0.0,0.0,88,0.00,,---,0.00,VWS V14.01,2013-09-23 04:36:00,
2013-09-22 22:42:00,37.2,34.3,29.90,WSW,245,0.0,0.0,89,0.00,,---,0.00,VWS V14.01,2013-09-23 04:42:00,
2013-09-22 22:48:00,37.0,34.1,29.90,WSW,245,0.0,0.0,89,0.00,,---,0.00,VWS V14.01,2013-09-23 04:48:00,
2013-09-22 22:54:00,37.0,34.1,29.90,WSW,245,0.0,0.0,89,0.00,,---,0.00,VWS V14.01,2013-09-23 04:54:00,
2013-09-22 22:59:00,37.0,34.1,29.90,WSW,245,0.0,0.0,89,0.00,,---,0.00,VWS V14.01,2013-09-23 04:59:00,
2013-09-22 23:05:00,37.0,34.1,29.90,WSW,245,0.0,0.0,89,0.00,,---,0.00,VWS V14.01,2013-09-23 05:05:00,
2013-09-22 23:11:00,37.0,34.1,29.93,WSW,245,0.0,0.0,89,0.00,,---,0.00,VWS V14.01,2013-09-23 05:11:00,
2013-09-22 23:16:00,37.0,34.1,29.93,WSW,245,0.0,0.0,89,0.00,,---,0.00,VWS V14.01,2013-09-23 05:16:00,
2013-09-22 23:21:00,37.0,34.1,29.93,WSW,245,0.0,0.0,89,0.00,,---,0.00,VWS V14.01,2013-09-23 05:21:00,
2013-09-22 23:26:00,37.0,34.1,29.93,WSW,245,0.0,0.0,89,0.00,,---,0.00,VWS V14.01,2013-09-23 05:26:00,
2013-09-22 23:31:00,37.0,34.1,29.93,WSW,245,0.0,0.0,89,0.00,,---,0.00,VWS V14.01,2013-09-23 05:31:00,
2013-09-22 23:37:00,37.0,34.1,29.93,SSW,203,0.0,0.0,89,0.00,,---,0.00,VWS V14.01,2013-09-23 05:37:00,
2013-09-22 23:42:00,36.9,33.9,29.93,SSW,203,0.0,0.0,89,0.00,,---,0.00,VWS V14.01,2013-09-23 05:42:00,
2013-09-22 23:47:00,36.7,33.8,29.93,SSW,203,0.0,0.0,89,0.00,,---,0.00,VWS V14.01,2013-09-23 05:47:00,
2013-09-22 23:52:00,36.7,33.8,29.93,SSW,212,0.0,0.0,89,0.00,,---,0.00,VWS V14.01,2013-09-23 05:52:00,
2013-09-22 23:58:00,36.7,33.8,29.93,SSW,210,0.0,0.0,89,0.00,,---,0.00,VWS V14.01,2013-09-23 05:58:00,